513  
ASUS44 KLUB 230310  
RWRLUB  
WEST TEXAS WEATHER ROUNDUP  
NATIONAL WEATHER SERVICE LUBBOCK TX  
1000 PM CDT WED MAY 22 2024  
 
NOTE: "FAIR" INDICATES FEW OR NO CLOUDS BELOW 12,000 FEET WITH NO  
SIGNIFICANT WEATHER AND/OR S TO VISIBILITY
.  
 
TXZ004-006>008-010-012-014-016-OKZ002-230400-  
TEXAS PANHANDLE/OKLAHOMA PANHANDLE  
 
CITY SKY/WX TMP DP RH WIND PRES REMARKS
 
AMARILLO CLEAR 66 31 27 SE15 29.89R  
BORGER CLEAR 71 49 45 SE12G21 29.89R  
CANADIAN CLEAR 66 51 59 SE9 29.88S  
DALHART CLEAR 68 47 46 SE14 29.87R  
DUMAS CLEAR 68 47 46 SE16 29.88R  
GUYMON CLEAR 65 49 56 SE10 29.85F  
HEREFORD CLEAR 68 50 52 SE10 29.90S  
PAMPA CLEAR 67 51 55 SE13 29.91R  
PERRYTON CLEAR N/A N/A N/A SE9 29.88S  

 
 
TXZ026-029-035-045-048-230400-  
SOUTHERN PANHANDLE/SOUTH PLAINS/ROLLING PLAINS  
 
CITY SKY/WX TMP DP RH WIND PRES REMARKS
 
CHILDRESS CLEAR 71 54 54 E5 29.88R  
SEMINOLE CLEAR 78 57 48 E14 29.91R  
LUBBOCK CLEAR 71 54 54 E13 29.89R  
PLAINVIEW CLEAR 66 49 54 E10 29.90R  
SNYDER CLEAR 73 61 66 E8 29.87S  

 
 
TXZ052-054-060>062-072-078-127-140-154-169-230400-  
PERMIAN BASIN/CONCHO VALLEY/BIG COUNTRY/EDWARDS PLATEAU  
 
CITY SKY/WX TMP DP RH WIND PRES REMARKS
 
ABILENE CLOUDY 74 67 78 E5 29.85R  
BIG SPRING CLEAR 75 63 65 E14 29.86R  
BRADY CLOUDY 72 66 83 CALM 29.85R  
BROWNWOOD CLOUDY 72 72 100 CALM 29.85R  
JUNCTION PTCLDY 83 71 67 N7 29.81R  
MIDLAND CLEAR 78 64 61 E14 29.85R  
ODESSA CLEAR 79 63 57 E14 29.86R  
SAN ANGELO CLEAR 71 67 87 NE6 29.82R  
SONORA CLEAR 79 72 78 CALM 29.87R  
SWEETWATER N/A 73 64 75 NE3 29.89R  
WINK CLEAR 83 33 16 E8 29.79R  

 
 
TXZ055-058-074-075-080-082-230400-  
FAR WEST/SOUTHWEST MOUNTAINS/TRANS PECOS  
 
CITY SKY/WX TMP DP RH WIND PRES REMARKS
 
ALPINE CLEAR 79 25 13 NE5 29.98R  
DRYDEN N/A 82 70 66 E5 29.79R  
EL PASO CLEAR 87 -3 3 W16G30 29.87R  
FORT STOCKTON CLEAR 86 30 13 E6 29.82R  
MARFA CLEAR 73 6 7 NW13 29.97R  
PECOS CLEAR 82 29 15 NE6 29.79R  
PRESIDIO CLEAR 90 31 12 NW7 29.77R  

 
 
TXZ014-016-019-021>030-083-230400  
TEXAS TECH WEST TEXAS MESONET/TEXAS PANHANDLE/NORTHERN SOUTH PLAINS  
 
CITY SKY/WX TMP DP RH WIND PRES REMARKS
 
ABERNATHY 5ENE N/A 69 53 58 E13 29.91R  
AMARILLO 9NNE N/A 69 49 48 SE12 29.89S  
AMARILLO 7SSE N/A 68 48 49 SE12 29.91S  
AMHERST 1NE N/A 69 51 51 E14 29.89S  
BOOTLEG 11WNW N/A 68 47 47 SE17 29.94R  
CANADIAN 6E N/A 66 53 61 E13 29.87F  
CAPROCK CYN SP N/A 68 52 56 E7 29.90S  
CHILDRESS 2NNE N/A 68 54 60 E7 29.90R  
CLARENDON 2WSW N/A 63 50 61 SE8 29.92R  
CLAUDE 12SW N/A 67 47 49 SE9 29.92R  
DIMMITT 2NE N/A 68 49 49 SE10 29.91R  
FLOYDADA 2NNE N/A 63 52 68 E9 29.92S  
FRIONA 2NE N/A 68 50 51 SE12 29.90R  
GOODLETT 3W N/A 70 56 61 NE5 29.87R  
HART 3N N/A 67 50 53 E12 29.91S  
HEREFORD 2NW N/A 70 50 49 SE10 29.91R  
MCLEAN 1E N/A 65 49 56 SE9 29.91R  
MEMPHIS 1NE N/A 68 50 52 E6 29.90R  
MULESHOE 2SSW N/A 70 49 48 E12 29.89S  
OLTON 6S N/A 67 52 59 E10 29.89S  
PALO DURO SP N/A 69 47 45 SE9 29.93R  
PAMPA 2E N/A 64 49 57 SE10 29.92R  
PLAINVIEW 1S N/A 67 51 55 E8 29.91R  
SILVERTON 7ESE N/A 62 52 68 E9 29.92S  
TULIA 2ENE N/A 67 51 57 E12 29.92R  
TURKEY 2WSW N/A 69 52 55 E9 29.89S  
UMBARGER 3NNE N/A 67 49 52 SE16 29.91F  

 
 
TXZ033>036-039>041-045>048-230400  
TEXAS TECH WEST TEXAS MESONET/SOUTH PLAINS  
 
CITY SKY/WX TMP DP RH WIND PRES REMARKS
 
AIKEN 3WSW N/A 64 51 64 E10 29.93R  
ANDREWS 2NE N/A 78 60 54 E16 29.87R  
ANTON 6SSW N/A 72 54 52 E12 29.89R  
BROWNFIELD 2S N/A 74 56 52 E13 29.88R  
DENVR CTY 7WNW N/A 76 51 42 E16 29.87R  
GAIL 2ESE N/A 74 61 63 E10 29.87R  
LAMESA 2SE N/A 75 60 58 E14 29.88R  
LUBBOCK 3WNW N/A 72 54 52 E12 29.90R  
MORTON 1ENE N/A 72 50 46 E12 29.90R  
ODONNELL 1N N/A 74 58 56 E12 29.89R  
PLAINS 3N N/A 74 52 45 E13 29.89R  
RALLS 1SE N/A 69 53 56 E8 29.91R  
REESE CENTER N/A 73 54 52 E17 29.90R  
SEAGRAVES 1SW N/A 76 56 49 E9 29.87R  
SEMINOLE 2NNE N/A 77 57 50 E17 29.88R  
SLATON 2NE N/A 72 55 54 E8 29.91R  
SNYDER 3E N/A 72 63 73 E7 29.86S  
SUNDOWN 8SW N/A 73 54 50 E15 29.89R  
TAHOKA 3NNE N/A 72 56 57 E9 29.89R  
WOLFFORTH 6SSW N/A 71 54 55 E10 29.90R  

 
 
TXZ031-032-036>038-042>044-230400-  
TEXAS TECH WEST TEXAS MESONET/ROLLING PLAINS  
 
CITY SKY/WX TMP DP RH WIND PRES REMARKS
 
ASPERMONT 3NE N/A 68 64 86 NE3 29.85R  
FLUVANNA 3WNW N/A 72 60 67 E7 29.88R  
GRAHAM 5SSW N/A 74 59 59 E14 29.89R  
GUTHRIE 10WSW N/A 71 62 72 E8 29.86R  
HASKELL 1NW N/A 72 64 77 CALM 29.84R  
JAYTON 1SSE N/A 69 62 78 E6 29.87R  
KNOX CITY 3NW N/A 70 66 87 NE3 29.85R  
LK A HENRY 1NW N/A 73 60 63 E7 29.87R  
NORTHFIELD 1S N/A 70 53 55 E6 29.89R  
ODELL 4ENE N/A 70 61 73 NE7 29.85S  
PADUCAH 10SW N/A 71 60 68 CALM 29.90R  
POST 1NE N/A 72 59 63 E7 29.88R  
RRING SPRGS 3N N/A 67 54 63 NE7 29.90S  
SEYMOUR 3NW N/A 71 67 85 NE5 29.84R  
SPUR 1W N/A 71 60 66 CALM 29.87R  
WEINERT 2NNE N/A 70 66 87 NE5 29.86R  
WHITE RVR 6NE N/A 71 56 59 E7 29.89R  

 
 
TXZ052-054-060>062-072-078-127-140-154-169-230400-  
TEXAS TECH WEST TEXAS MESONET/PERMIAN BASIN/  
CONCHO VALLEY/BIG COUNTRY/EDWARDS PLATEAU  
 
CITY SKY/WX TMP DP RH WIND PRES REMARKS
 
COYANOSA 2N N/A 85 27 12 NE7 29.80R  
JUNCTION 1SSW N/A 77 71 82 CALM 29.82R  
MERTZON 3NNE N/A 70 68 92 CALM 29.86R  
SAN ANGELO 7NW N/A 71 67 87 E7 29.84R  
STRLNG CT 4WSW N/A 72 67 85 CALM 29.87R  
ST LAWRNCE 5SW N/A 74 63 67 E13 29.86S  
SWEETWATR 11SW N/A 71 65 82 NE7 29.89R  
WALL 1E N/A 70 70 98 NE6 29.85R  

 
 
TXZ055-058-074-075-080-082-230400-  
TEXAS TECH WEST TEXAS MESONET/FAR WEST/SOUTHWEST MOUNTAINS/TRANS PECOS  
 
CITY SKY/WX TMP DP RH WIND PRES REMARKS
 
PRSMN GAP BBNP N/A 86 69 56 NE22 29.79R  
GUADLPE MTN NP N/A 76 4 6 SW8G22 30.01R  

 
 
 
CLICK HERE TO GO TO PREVIOUS BULLETINS.

The Nexlab TX Page Main Text Page